FW9535 Weather Reports


time (UTC)temp
F
wind
direction
speed
knots
gust
knots
rain 1hr
in
rain 24hr
in
rain mn
in
humidity
%
barometer
mb
20260503235550 65 302 0.0 0.0 0.00 0.05 0.05 84 1014.9
20260503234048 63 304 0.9 1.7 0.00 0.05 0.05 93 1014.6
20260503232544 64 321 0.9 4.3 0.00 0.05 0.05 95 1014.7
20260503231041 64 327 0.0 0.0 0.12 0.05 0.05 95 1014.8
20260503225538 64 311 0.0 0.0 0.07 0.03 0.03 93 1014.9
20260503224034 65 299 0.0 0.0 0.05 0.02 0.02 91 1015.0
20260503222531 66 316 0.0 0.9 0.00 0.00 0.00 88 1014.9
20260503221030 66 302 0.0 0.0 0.00 0.00 0.00 87 1014.8
20260503215526 66 316 0.0 0.9 0.00 0.00 0.00 86 1014.6
20260503214023 66 83 1.7 5.2 0.00 0.00 0.00 86 1014.4
20260503212521 66 303 0.0 0.0 0.00 0.00 0.00 85 1013.9
20260503211016 66 296 0.9 0.9 0.00 0.00 0.00 85 1013.8
20260503205512 66 303 1.7 2.6 0.00 0.00 0.00 86 1013.7
20260503204008 65 328 1.7 1.7 0.00 0.00 0.00 87 1013.7
20260503202506 65 316 1.7 1.7 0.00 0.00 0.00 87 1013.8
20260503201004 65 313 0.9 0.9 0.00 0.00 0.00 87 1013.5
20260503195500 65 323 0.9 1.7 0.00 0.00 0.00 87 1013.8
20260503194000 64 312 1.7 2.6 0.00 0.00 0.00 87 1013.9
20260503192500 64 312 0.0 0.0 0.00 0.00 0.00 86 1014.1
20260503190955 64 308 0.0 0.0 0.00 0.00 0.00 86 1014.1
20260503185452 64 304 0.0 0.0 0.00 0.00 0.00 88 1014.1
20260503183950 63 317 0.9 0.9 0.00 0.00 0.00 89 1014.4
20260503182449 64 299 0.0 0.0 0.00 0.00 0.00 89 1014.3
20260503180944 64 295 0.0 0.0 0.00 0.00 0.00 88 1014.4
20260503175443 64 267 0.0 0.0 0.00 0.00 0.00 88 1014.3
20260503173943 65 238 0.0 0.0 0.00 0.00 0.00 86 1014.3
20260503172440 65 242 1.7 1.7 0.00 0.00 0.00 87 1014.3
20260503170936 65 228 0.9 0.9 0.00 0.00 0.00 87 1014.1
20260503150912 67 323 2.6 2.6 0.00 0.00 0.00 84 1014.6
20260503130846 69 300 0.0 0.0 0.00 0.00 0.00 81 1015.7
20260503080807 69 10 0.9 0.9 0.00 0.00 0.00 84 1016.1
20260503072304 69 19 5.2 7.0 0.00 0.00 0.00 83 1015.9
20260503070757 69 25 0.9 1.7 0.00 0.00 0.00 82 1016.1
20260503053737 75 312 1.7 1.7 0.00 0.00 0.00 73 1016.3
20260503052235 74 336 4.3 7.0 0.00 0.00 0.00 74 1016.7
20260503050730 75 50 2.6 5.2 0.00 0.00 0.00 72 1016.8
20260503045228 74 34 5.2 7.0 0.00 0.00 0.00 72 1016.7
20260503043724 75 323 2.6 5.2 0.00 0.00 0.00 71 1016.8
20260503042220 75 323 2.6 4.3 0.00 0.00 0.00 71 1016.8
20260503040717 74 22 4.3 6.1 0.00 0.00 0.00 71 1017.1
20260503035215 75 348 4.3 7.8 0.00 0.00 0.00 70 1017.2
20260503033712 75 351 3.5 4.3 0.00 0.00 0.00 68 1017.3
20260503032212 75 335 1.7 4.3 0.00 0.00 0.00 67 1017.6
20260503030708 75 258 3.5 4.3 0.00 0.00 0.00 66 1017.7
20260503025205 74 330 4.3 5.2 0.00 0.00 0.00 68 1017.8
20260503023701 73 21 4.3 6.1 0.00 0.00 0.00 68 1018.2
20260503022159 74 319 0.9 0.9 0.00 0.00 0.00 67 1018.5
20260503020656 75 313 0.9 0.9 0.00 0.00 0.00 60 1018.4
20260503015153 75 31 3.5 5.2 0.00 0.00 0.00 60 1018.7
20260503013649 75 8 7.0 11.3 0.00 0.00 0.00 59 1018.8
20260503012146 76 316 4.3 7.8 0.00 0.00 0.00 58 1019.0
20260503010641 75 303 3.5 4.3 0.00 0.00 0.00 60 1019.6
20260503005139 74 178 3.5 6.1 0.00 0.00 0.00 62 1019.8
20260503003636 73 23 7.8 11.3 0.00 0.00 0.00 61 1019.6
20260503002133 75 355 6.1 7.8 0.00 0.00 0.00 59 1019.8